Wind_Speed
9 8 9 5 14 19 16 12 6 7 7 5 5 5 8 10 9 8 10 10 7 8 9 9 8 11 11 13 13 16 15 18 16 15 13 13 13 13 13 14 15 16 17 18 17 18 18 17 16
12 9 17 18 15 11 5 7 7 3 6 5 7 8 7 7 8 8 7 8 8 8 8 9 9 10 12 14 14 17 17 16 15 13 13 12 12 13 13 13 15 15 15 15 15 17 18 16 15
11 7 14 21 19 4 6 8 3 3 3 5 6 7 7 7 7 9 9 7 7 8 8 9 9 11 13 18 17 17 17 17 16 13 13 12 12 12 12 13 13 14 13 12 14 15 16 16 15
16 21 16 13 1 5 8 6 4 1 2 4 4 6 7 8 6 6 7 8 9 8 8 10 10 11 12 7 19 18 18 18 15 13 13 12 11 12 11 12 11 13 12 12 11 12 14 14 14
18 17 19 6 9 11 9 8 6 2 1 1 3 2 4 6 4 2 5 6 7 8 8 8 10 11 11 12 21 18 17 18 16 14 14 11 10 10 11 11 10 11 12 12 11 12 13 13 11
22 27 8 7 9 9 7 5 3 3 5 5 4 3 1 3 3 2 3 5 5 3 4 7 9 10 12 14 14 18 17 18 17 17 15 13 10 10 11 10 9 9 11 11 10 12 12 14 12
17 19 6 6 8 8 8 5 6 5 6 7 6 4 2 2 3 4 4 4 5 5 3 3 6 9 12 16 20 20 19 17 16 20 19 15 12 11 11 10 9 8 9 10 8 9 10 12 12
20 2 14 6 8 9 8 6 5 5 5 6 7 6 2 2 3 3 3 3 2 3 4 5 6 9 11 13 13 19 21 17 15 17 17 18 14 12 11 11 9 7 6 8 7 7 9 10 10
5 5 6 1 4 8 6 5 5 5 5 5 6 6 5 6 6 5 4 4 3 2 2 6 7 8 13 12 12 11 25 19 17 17 17 18 15 13 11 12 11 8 6 7 7 6 7 8 8
11 8 2 3 4 7 5 5 6 5 5 5 5 5 6 7 8 6 6 6 5 7 8 9 11 13 14 15 14 12 17 20 20 19 19 18 11 23 18 14 13 10 7 6 7 6 6 6 6
2 6 3 7 5 3 2 4 3 3 4 4 5 4 5 6 6 7 7 5 7 11 10 6 5 11 16 16 8 5 3 22 22 21 20 21 17 24 14 13 14 12 8 5 6 5 4 4 4
3 7 7 3 3 3 1 3 2 2 4 6 4 5 6 7 5 7 7 6 8 14 15 12 7 5 8 15 14 12 9 22 26 22 20 18 21 24 18 14 13 12 9 7 4 3 3 2 2
3 5 6 5 3 1 2 3 2 2 3 5 4 4 6 6 7 8 8 8 9 13 15 15 9 5 3 8 4 18 13 14 29 26 22 19 22 23 17 15 12 10 7 6 3 1 0 1 1
4 6 7 8 4 1 4 7 5 2 2 2 3 3 4 5 7 8 8 7 7 11 15 16 11 6 2 7 3 8 13 16 29 29 23 23 18 19 16 12 10 9 7 5 3 2 3 4 3
8 5 11 8 8 7 5 2 7 8 5 3 2 1 4 6 7 6 3 8 6 6 10 11 13 6 3 3 5 11 7 14 32 32 28 18 19 16 12 11 8 6 6 6 5 3 3 5 6
15 9 8 8 6 8 5 5 4 6 9 5 3 6 9 7 8 6 11 16 8 5 7 8 8 9 2 2 8 9 6 14 23 30 29 25 20 18 14 10 9 6 4 5 3 2 4 5 7
13 11 11 6 6 6 6 6 2 2 2 3 3 4 5 8 4 3 10 7 5 4 7 5 6 7 4 3 7 7 6 7 11 17 30 22 18 15 14 11 11 7 6 5 3 4 6 8 10
5 15 18 4 6 2 7 6 4 7 10 10 8 6 4 5 3 5 3 6 6 4 6 7 6 9 9 5 6 7 5 2 9 10 27 23 16 11 11 11 12 7 6 7 7 6 9 11 12
4 12 12 6 8 6 1 4 4 11 9 8 5 7 6 7 0 9 10 8 5 5 8 5 5 4 8 8 7 9 6 4 6 9 20 22 19 14 11 11 11 10 8 5 9 7 12 15 12
8 10 15 10 7 15 1 7 3 5 12 6 8 6 9 8 1 5 5 5 4 4 10 12 15 12 10 8 11 8 9 5 4 13 26 20 15 12 10 10 10 8 6 7 8 10 8 12 16
3 2 7 9 4 6 11 5 7 7 9 9 12 12 9 7 6 7 4 5 3 4 6 11 11 13 14 13 10 6 6 10 8 13 26 20 15 11 8 5 6 6 4 7 8 7 8 12 12
18 20 12 9 8 6 17 3 9 7 8 9 14 8 8 8 9 9 6 7 5 8 10 10 11 12 13 12 12 15 17 18 20 18 17 14 12 7 5 3 3 5 6 8 11 10 11 14 17
23 9 11 4 4 11 17 13 8 6 9 12 14 6 4 15 11 10 12 15 12 10 9 9 9 10 12 14 17 19 19 17 19 14 11 10 8 8 7 5 3 6 8 10 12 12 13 14 20
9 9 11 20 16 18 13 8 10 8 11 14 14 11 11 7 12 9 15 13 12 13 12 12 13 12 14 14 14 13 13 10 11 10 7 4 1 6 8 3 5 8 9 10 13 14 16 20 20
10 6 11 8 15 11 13 10 8 10 10 13 12 10 15 10 14 15 15 14 15 14 14 14 15 15 14 13 14 13 12 10 10 8 7 7 6 9 7 5 8 11 13 14 15 16 19 20 21
13 28 28 17 24 10 13 13 13 10 8 6 10 15 6 12 14 16 13 14 13 13 14 13 13 13 13 12 11 10 9 8 7 6 6 6 3 4 7 11 10 11 16 12 11 14 18 20 19
23 21 23 5 22 14 18 23 3 7 9 1 3 10 13 8 8 9 10 11 12 14 14 14 14 13 13 12 11 9 8 7 6 6 7 7 6 8 13 14 13 12 11 14 15 16 16 16 16
24 9 20 8 4 8 18 10 6 6 4 1 5 4 10 8 7 8 10 12 12 13 13 13 13 13 11 11 11 10 9 8 7 6 6 8 9 9 9 10 12 13 12 14 16 17 15 17 18
18 10 6 16 0 16 16 12 2 2 4 2 3 4 7 7 7 8 12 12 12 13 15 15 16 15 15 15 15 13 11 9 9 9 8 8 8 9 10 11 11 12 13 16 17 18 17 17 19
21 11 12 8 5 12 35 19 9 3 4 5 6 6 8 6 8 7 8 12 13 14 14 14 14 13 13 13 14 14 13 10 11 9 9 9 10 10 10 11 12 13 16 19 21 22 22 22 22
Wind_Direction
76 80 83 86 24 48 73 106 61 127 147 161 124 128 158 177 183 183 186 186 186 177 172 174 170 155 159 158 156 157 147 152 150 142 133 126 121 119 111 108 105 100 96 93 91 85 80 73 76
71 94 117 92 89 32 138 161 136 159 166 167 176 141 146 143 169 170 172 183 178 180 175 177 178 168 162 170 165 165 161 157 154 149 139 128 128 125 117 114 109 108 101 97 91 89 86 81 76
69 72 36 76 60 95 141 20 138 182 198 172 169 178 161 161 160 170 176 188 184 172 174 177 183 184 184 185 171 169 168 165 159 155 148 133 137 133 122 117 116 114 112 109 103 94 89 84 81
92 77 75 59 107 77 113 152 141 119 143 164 162 172 180 187 178 168 172 188 175 174 176 178 184 194 203 201 172 169 170 165 166 159 154 150 151 139 128 120 119 116 112 112 110 105 97 92 85
98 73 56 28 56 88 92 91 98 132 154 199 143 155 164 200 209 179 167 209 188 172 167 181 187 194 209 220 180 170 173 178 177 170 175 161 153 141 133 131 125 121 111 112 115 110 105 101 94
89 83 72 60 69 66 66 74 77 107 120 105 95 95 114 178 204 179 174 199 212 191 171 181 197 199 211 216 182 177 178 180 182 185 181 173 157 149 142 137 129 123 122 112 109 108 107 102 96
69 81 75 62 62 56 41 48 81 98 110 100 93 88 125 164 178 190 202 206 201 198 193 184 201 210 217 223 214 185 180 179 185 191 180 176 167 157 153 148 142 135 130 120 115 113 107 99 97
67 273 107 11 58 57 48 42 80 96 94 92 88 96 102 139 158 179 166 162 177 184 199 214 224 224 227 240 243 188 180 178 182 204 171 179 174 174 156 161 151 149 132 116 115 101 97 98 92
153 116 83 345 72 80 67 67 82 93 96 94 93 94 96 94 100 100 79 83 48 23 284 247 233 237 244 240 254 261 182 182 182 187 175 185 172 200 178 166 159 159 147 110 106 98 89 87 92
74 96 192 141 98 87 91 91 71 65 73 88 95 92 91 93 77 65 47 54 20 354 326 283 250 237 243 250 231 231 189 186 182 182 180 199 186 165 179 175 167 166 160 126 96 76 83 89 96
62 234 135 98 93 75 96 104 92 38 43 84 88 95 101 98 81 56 51 38 2 359 6 342 282 252 240 249 262 279 255 197 190 187 195 201 186 173 179 165 174 172 161 129 95 83 73 98 115
175 140 129 126 136 115 357 117 158 125 96 100 98 94 96 101 88 67 46 27 36 12 16 8 337 306 243 230 235 231 224 188 197 192 199 200 209 181 179 173 169 165 148 119 101 100 81 103 135
159 111 136 175 179 192 193 260 294 78 78 98 113 125 96 69 52 50 40 21 17 27 23 24 19 356 185 189 267 220 215 232 198 199 207 200 173 166 174 170 159 151 140 118 108 95 99 197 289
351 111 114 107 112 90 267 248 246 238 237 213 93 82 38 16 31 28 44 35 26 19 20 23 34 26 221 254 291 175 223 206 195 198 199 199 170 163 183 170 150 148 152 145 129 217 225 237 230
233 97 106 94 79 62 29 310 233 247 236 287 274 226 21 355 4 19 68 92 32 31 25 24 23 44 87 254 233 199 180 195 203 196 207 197 169 170 189 176 179 160 159 179 177 241 257 260 258
184 137 76 66 69 63 38 42 358 263 247 236 260 309 321 345 358 30 343 44 55 12 26 32 21 20 75 156 184 192 216 188 181 181 194 199 174 176 183 185 187 177 188 212 233 250 297 288 284
184 201 108 20 72 63 65 49 27 12 90 151 155 350 41 72 16 317 351 21 39 29 19 359 4 18 35 147 179 192 187 194 197 191 195 177 168 173 181 186 193 191 216 233 257 274 273 283 280
87 89 140 29 8 16 80 76 101 110 89 101 84 89 125 36 46 15 345 338 28 31 35 17 22 26 45 113 159 161 153 108 224 129 179 181 175 171 183 189 195 215 228 260 252 257 270 278 286
76 123 77 335 342 72 130 71 100 111 101 124 143 63 39 42 306 133 346 356 357 19 36 71 38 22 60 90 125 147 123 166 119 148 167 167 171 174 176 179 200 210 239 255 256 279 287 288 288
4 72 111 276 20 189 293 81 69 137 120 115 112 100 86 53 125 23 20 8 28 34 87 79 43 68 82 88 101 151 166 155 121 169 159 155 147 158 148 178 200 209 228 270 277 301 301 284 281
317 291 225 275 312 110 110 22 39 67 88 83 81 65 18 180 93 60 62 51 57 74 78 81 76 88 84 87 82 123 170 168 156 135 183 136 144 145 146 172 201 224 259 275 280 288 285 285 283
220 187 221 280 294 166 143 7 58 41 99 73 70 81 51 77 56 54 67 84 94 108 103 94 93 79 76 70 58 106 101 106 106 98 105 126 123 128 139 154 236 252 264 278 289 293 283 283 286
238 183 190 216 219 196 157 173 70 59 95 117 161 124 100 80 88 87 74 82 98 110 101 90 81 78 70 60 54 82 99 95 98 100 114 112 146 181 181 187 224 269 271 277 291 299 298 295 296
270 207 182 209 233 228 88 162 92 87 106 108 99 122 179 52 71 47 81 84 100 101 99 95 94 84 78 78 83 79 77 87 82 94 97 95 5 336 41 5 342 315 311 307 298 297 298 300 300
213 185 216 224 243 240 147 143 115 67 81 101 119 145 111 114 96 87 87 93 91 94 96 93 92 92 90 84 82 82 85 79 72 92 85 69 19 351 4 1 333 322 314 307 299 300 301 303 304
257 244 247 225 182 103 150 118 77 94 92 102 119 121 153 97 90 103 96 94 95 92 86 82 75 70 66 67 64 64 63 64 65 58 41 16 24 106 21 346 329 330 317 302 323 319 312 309 309
239 238 258 171 135 177 98 114 138 91 122 101 144 111 113 133 98 93 92 88 87 87 84 79 76 73 69 68 65 64 57 46 36 25 16 9 360 342 325 350 327 334 337 325 320 316 316 317 320
279 319 202 197 249 156 159 203 93 104 102 109 118 115 135 148 130 123 113 105 97 91 88 87 84 82 77 67 59 53 49 43 31 19 7 4 350 335 333 320 321 327 327 326 330 330 331 327 327
240 221 279 188 44 192 156 196 107 180 140 186 161 173 133 131 124 129 121 123 113 103 94 88 83 77 72 64 55 47 39 30 25 21 8 356 351 346 343 340 331 327 327 329 330 330 329 328 331
213 236 248 184 241 152 180 173 196 181 193 196 192 179 147 152 138 130 127 114 111 105 96 87 78 70 61 53 42 31 21 23 18 360 353 350 347 343 339 332 328 324 324 325 328 328 331 332 335
Height
5878 5879 5879 5880 5871 5876 5879 5880 5882 5882 5882 5881 5883 5883 5884 5884 5886 5891 5889 5890 5892 5894 5895 5897 5898 5899 5900 5901 5903 5904 5905 5907 5909 5911 5912 5913 5914 5915 5917 5917 5918 5918 5919 5919 5920 5918 5918 5919 5920
5881 5878 5877 5877 5880 5882 5883 5881 5884 5883 5884 5883 5884 5885 5886 5888 5888 5889 5890 5891 5893 5895 5896 5898 5899 5900 5901 5902 5904 5904 5906 5909 5911 5913 5914 5916 5917 5917 5918 5919 5920 5920 5921 5921 5922 5921 5920 5921 5922
5882 5882 5877 5874 5881 5885 5883 5884 5885 5885 5885 5885 5887 5887 5889 5890 5890 5891 5892 5893 5894 5895 5897 5899 5900 5901 5902 5902 5904 5905 5907 5910 5913 5914 5916 5918 5919 5920 5920 5921 5922 5922 5923 5924 5923 5923 5923 5923 5924
5884 5885 5883 5886 5887 5886 5886 5886 5886 5887 5887 5887 5888 5890 5890 5891 5892 5893 5894 5894 5895 5896 5897 5899 5900 5901 5902 5902 5903 5906 5908 5911 5914 5916 5918 5920 5921 5922 5923 5924 5925 5924 5925 5926 5926 5925 5925 5925 5926
5885 5886 5887 5889 5887 5888 5888 5888 5888 5888 5888 5887 5888 5890 5891 5892 5893 5894 5895 5896 5896 5896 5898 5899 5901 5902 5902 5902 5903 5906 5910 5912 5915 5917 5919 5922 5923 5924 5925 5926 5927 5928 5927 5928 5928 5927 5927 5928 5928
5892 5890 5895 5892 5890 5889 5889 5889 5890 5890 5891 5891 5892 5892 5893 5893 5894 5894 5895 5897 5898 5898 5899 5900 5901 5902 5902 5902 5904 5907 5909 5912 5914 5917 5920 5922 5924 5925 5927 5927 5929 5930 5929 5929 5930 5930 5930 5930 5930
5890 5893 5897 5894 5893 5893 5892 5892 5892 5893 5893 5893 5893 5894 5895 5895 5895 5896 5896 5897 5898 5900 5900 5901 5901 5902 5902 5901 5902 5905 5908 5911 5914 5917 5920 5923 5925 5926 5927 5929 5930 5931 5932 5931 5932 5932 5933 5932 5933
5893 5891 5898 5898 5897 5896 5895 5895 5895 5895 5895 5894 5894 5894 5896 5896 5897 5897 5897 5898 5899 5899 5900 5901 5900 5901 5902 5900 5897 5901 5906 5910 5913 5915 5919 5923 5925 5927 5929 5930 5931 5933 5934 5933 5934 5935 5935 5935 5936
5902 5902 5901 5900 5899 5897 5897 5898 5898 5898 5897 5897 5897 5897 5898 5898 5898 5898 5898 5900 5899 5900 5900 5900 5900 5901 5901 5901 5901 5902 5904 5910 5913 5917 5922 5924 5926 5928 5930 5931 5933 5936 5937 5936 5936 5937 5937 5937 5938
5905 5906 5901 5900 5901 5900 5901 5901 5901 5901 5900 5900 5900 5900 5900 5900 5900 5900 5900 5901 5900 5900 5899 5898 5899 5900 5900 5901 5902 5904 5907 5910 5913 5918 5922 5924 5927 5928 5929 5932 5934 5937 5938 5938 5938 5939 5939 5940 5941
5906 5905 5903 5902 5902 5903 5903 5903 5902 5902 5902 5902 5903 5902 5902 5902 5902 5902 5902 5902 5901 5899 5898 5896 5897 5898 5899 5900 5902 5903 5906 5910 5912 5917 5922 5924 5928 5931 5933 5934 5936 5937 5939 5939 5939 5940 5940 5941 5942
5907 5904 5904 5903 5903 5904 5904 5904 5904 5904 5904 5904 5904 5904 5904 5903 5903 5903 5903 5903 5902 5898 5897 5896 5895 5895 5896 5899 5901 5903 5906 5909 5912 5916 5921 5924 5927 5930 5933 5935 5937 5938 5940 5939 5940 5941 5942 5942 5944
5907 5904 5904 5903 5904 5904 5904 5903 5903 5905 5905 5905 5905 5905 5905 5904 5903 5903 5904 5902 5900 5899 5898 5895 5894 5894 5895 5897 5898 5900 5904 5907 5910 5915 5919 5923 5925 5929 5934 5936 5937 5938 5939 5939 5940 5941 5942 5943 5943
5910 5906 5905 5904 5904 5904 5904 5904 5903 5905 5904 5905 5906 5906 5905 5904 5904 5904 5904 5903 5902 5900 5898 5896 5895 5894 5894 5895 5897 5900 5901 5903 5908 5914 5918 5923 5925 5929 5935 5936 5936 5936 5938 5938 5940 5941 5942 5942 5943
5911 5909 5907 5906 5905 5904 5903 5902 5903 5903 5904 5905 5905 5905 5905 5904 5904 5905 5902 5900 5903 5903 5902 5899 5896 5896 5896 5896 5897 5899 5902 5903 5907 5912 5916 5921 5926 5930 5934 5935 5936 5937 5938 5939 5938 5940 5941 5942 5943
5905 5909 5909 5907 5907 5905 5905 5904 5902 5902 5902 5904 5905 5906 5905 5903 5905 5903 5899 5896 5901 5902 5902 5902 5901 5898 5897 5898 5900 5901 5902 5904 5906 5911 5916 5921 5925 5929 5933 5935 5936 5937 5938 5940 5940 5939 5941 5942 5943
5904 5906 5904 5909 5908 5906 5905 5904 5904 5902 5902 5904 5906 5906 5905 5905 5905 5902 5897 5901 5904 5903 5902 5901 5901 5901 5899 5899 5901 5901 5903 5905 5907 5910 5916 5920 5924 5929 5932 5935 5935 5936 5939 5940 5940 5940 5940 5941 5941
5900 5904 5899 5912 5910 5907 5907 5907 5905 5904 5903 5904 5905 5907 5906 5905 5906 5906 5907 5906 5903 5904 5904 5902 5901 5901 5899 5899 5900 5903 5905 5906 5907 5908 5914 5920 5926 5929 5931 5933 5936 5938 5940 5940 5941 5940 5939 5940 5941
5906 5902 5901 5913 5911 5909 5908 5908 5908 5905 5905 5905 5908 5907 5905 5905 5906 5898 5903 5903 5903 5905 5906 5902 5883 5903 5902 5901 5903 5905 5906 5907 5908 5910 5915 5919 5925 5929 5930 5933 5936 5938 5939 5940 5940 5939 5939 5940 5939
5906 5908 5904 5914 5911 5912 5909 5909 5910 5909 5906 5906 5906 5907 5908 5908 5909 5907 5908 5906 5906 5905 5908 5907 5906 5907 5905 5906 5905 5907 5908 5909 5910 5913 5917 5922 5926 5929 5930 5933 5936 5938 5939 5940 5939 5938 5937 5937 5936
5910 5909 5914 5912 5912 5911 5911 5911 5910 5908 5908 5907 5908 5906 5905 5900 5911 5911 5910 5909 5908 5908 5908 5909 5909 5910 5909 5908 5909 5909 5910 5911 5913 5913 5919 5924 5927 5930 5933 5936 5937 5938 5939 5938 5938 5937 5936 5935 5934
5914 5906 5913 5912 5913 5914 5916 5915 5911 5911 5910 5911 5911 5911 5911 5906 5910 5912 5912 5910 5911 5911 5912 5912 5913 5913 5913 5913 5911 5912 5913 5915 5915 5919 5923 5928 5930 5931 5932 5935 5938 5937 5935 5936 5935 5934 5934 5933 5930
5911 5914 5910 5903 5913 5909 5913 5912 5911 5911 5912 5913 5915 5914 5918 5913 5915 5915 5913 5912 5914 5914 5915 5916 5916 5916 5916 5917 5916 5916 5918 5918 5919 5923 5928 5929 5929 5928 5931 5933 5933 5936 5934 5934 5932 5931 5930 5931 5928
5912 5909 5911 5909 5911 5895 5901 5913 5912 5911 5913 5913 5914 5916 5918 5918 5917 5911 5911 5916 5917 5917 5918 5918 5919 5919 5920 5920 5921 5922 5923 5923 5924 5926 5930 5932 5930 5930 5928 5931 5933 5934 5933 5931 5930 5930 5928 5927 5925
5914 5915 5912 5908 5909 5908 5910 5912 5914 5911 5914 5915 5917 5919 5918 5920 5920 5919 5919 5921 5920 5921 5921 5921 5922 5922 5923 5924 5924 5925 5927 5928 5929 5930 5932 5933 5933 5929 5931 5930 5933 5932 5929 5929 5928 5927 5925 5923 5920
5909 5903 5897 5889 5895 5909 5908 5910 5914 5915 5916 5918 5920 5920 5924 5921 5922 5923 5923 5923 5924 5924 5924 5925 5925 5925 5926 5927 5928 5928 5929 5930 5930 5931 5931 5932 5932 5933 5935 5933 5932 5931 5929 5926 5925 5925 5922 5920 5918
5901 5903 5905 5909 5910 5899 5903 5909 5916 5917 5919 5920 5922 5923 5924 5927 5927 5926 5926 5926 5927 5927 5927 5927 5928 5928 5929 5930 5930 5931 5931 5932 5932 5931 5931 5932 5931 5931 5926 5908 5929 5928 5927 5925 5924 5922 5919 5916 5914
5901 5905 5907 5908 5902 5892 5909 5916 5916 5917 5920 5921 5923 5925 5926 5927 5930 5930 5930 5930 5930 5930 5931 5931 5931 5932 5932 5933 5933 5933 5932 5932 5932 5933 5932 5934 5932 5931 5930 5929 5928 5926 5926 5923 5921 5918 5916 5912 5909
5907 5909 5907 5898 5903 5906 5915 5916 5915 5919 5922 5922 5925 5927 5928 5929 5931 5933 5933 5933 5934 5934 5934 5934 5935 5935 5936 5935 5935 5934 5934 5932 5931 5933 5932 5932 5931 5930 5929 5928 5926 5924 5923 5920 5917 5914 5912 5909 5906
5908 5911 5913 5907 5905 5907 5903 5914 5918 5919 5922 5923 5926 5927 5929 5930 5932 5934 5936 5936 5936 5937 5937 5938 5938 5938 5938 5937 5937 5936 5934 5933 5933 5932 5932 5931 5929 5929 5927 5926 5924 5922 5919 5917 5914 5911 5908 5905 5903